User: anonymous   Login
Location: Saddleback Butte
(34.6776°N, 117.8050°W)
Time: 01:08:43
(UTC-07:00)
Language:

Cosmos 1862 Rocket - Orbit

View from above orbital plane
View from above orbital plane
View from above satellite
View from above satellite

Ground track
Ground track

The orbit data is extracted from the following two-line orbital elements,

1 18153U 87055B   16177.24753947  .00000097  00000-0  88791-5 0  9990
2 18153  82.5013  79.5861 0021678 175.2477 184.8948 14.83119298565455
Epoch (UTC): 25 June 2016 05:56:27
Eccentricity: 0.0021678
inclination: 82.5013°
perigee height: 604 km
apogee height: 634 km
right ascension of ascending node: 79.5861°
argument of perigee: 175.2477°
revolutions per day: 14.83119298
mean anomaly at epoch: 184.8948°
orbit number at epoch: 56545

The dashed part of the orbit path shows where the satellite is in the earth's shadow,  

DLR